EW2337 Weather Reports


time (UTC)temp
C
wind
direction
speed
KPH
gust
KPH
rain 1hr
cm
rain 24hr
cm
rain mn
cm
humidity
%
barometer
mb
20260506231814 20 235 6.4 9.7 0.00 0.15 0.15 78 1009.4
20260506231503 20 252 3.2 11.3 0.00 0.15 0.15 78 1009.9
20260506231312 20 267 3.2 8.0 0.00 0.15 0.15 78 1009.5
20260506231024 20 248 1.6 6.4 0.00 0.15 0.15 78 1009.8
20260506230809 20 222 3.2 8.0 0.00 0.15 0.15 78 1009.1
20260506230503 20 250 1.6 6.4 0.00 0.15 0.15 78 1010.1
20260506230306 20 261 0.0 0.0 0.00 0.15 0.15 78 1009.1
20260506230003 20 249 3.2 6.4 0.00 0.15 0.15 78 1009.9
20260506225802 20 244 1.6 8.0 0.00 0.15 0.15 78 1008.9
20260506225503 20 236 4.8 12.9 0.00 0.15 0.15 78 1010.0
20260506225259 20 250 3.2 8.0 0.00 0.15 0.15 78 1009.1
20260506225003 20 233 4.8 14.5 0.00 0.15 0.15 77 1010.1
20260506224756 20 238 11.3 12.9 0.00 0.15 0.15 77 1009.1
20260506224503 20 243 4.8 16.1 0.00 0.15 0.15 77 1010.1
20260506224254 20 244 11.3 14.5 0.00 0.15 0.15 77 1009.4
20260506224003 20 251 3.2 16.1 0.00 0.15 0.15 77 1010.2
20260506223750 21 260 4.8 16.1 0.00 0.15 0.15 77 1009.1
20260506223503 21 245 3.2 22.5 0.00 0.15 0.15 78 1010.3
20260506223246 21 248 0.0 3.2 0.00 0.15 0.15 77 1009.4
20260506223003 21 246 4.8 22.5 0.00 0.15 0.15 77 1010.0
20260506222743 21 240 8.0 22.5 0.00 0.15 0.15 77 1009.3
20260506222503 21 250 3.2 11.3 0.00 0.15 0.15 77 1010.1
20260506222238 21 236 6.4 11.3 0.00 0.15 0.15 77 1009.1
20260506222003 21 240 3.2 9.7 0.00 0.15 0.15 77 1010.0
20260506221736 21 286 6.4 9.7 0.00 0.15 0.15 76 1008.9
20260506221504 21 232 3.2 9.7 0.00 0.15 0.15 76 1009.8
20260506221234 21 162 4.8 9.7 0.00 0.15 0.15 75 1008.8
20260506221003 21 243 3.2 9.7 0.00 0.15 0.15 75 1009.8
20260506220726 21 247 6.4 9.7 0.00 0.15 0.15 75 1008.9
20260506220503 21 244 3.2 17.7 0.00 0.15 0.15 75 1009.7
20260506220225 21 251 1.6 3.2 0.00 0.15 0.15 75 1009.0
20260506220003 21 245 6.4 22.5 0.00 0.15 0.15 74 1009.8
20260506215723 21 270 4.8 17.7 0.00 0.15 0.15 75 1008.8
20260506215503 21 250 8.0 24.1 0.00 0.15 0.15 75 1009.4
20260506215218 21 239 9.7 22.5 0.00 0.15 0.15 75 1009.1
20260506215003 21 253 8.0 24.1 0.00 0.15 0.15 75 1009.9
20260506214715 21 235 12.9 14.5 0.00 0.15 0.15 75 1009.1
20260506214503 21 249 6.4 20.9 0.00 0.15 0.15 76 1009.8
20260506214212 21 232 8.0 16.1 0.00 0.15 0.15 76 1008.9
20260506214003 21 246 6.4 20.9 0.00 0.15 0.15 76 1010.0
20260506213710 21 240 6.4 17.7 0.00 0.15 0.15 75 1009.0
20260506213503 21 247 4.8 16.1 0.00 0.15 0.15 75 1009.8
20260506213208 21 181 4.8 4.8 0.00 0.15 0.15 74 1008.7
20260506213003 21 250 4.8 17.7 0.00 0.15 0.15 74 1009.9
20260506212705 21 258 4.8 9.7 0.00 0.15 0.15 74 1009.0
20260506212503 21 238 4.8 22.5 0.00 0.15 0.15 75 1009.7
20260506212200 21 245 4.8 11.3 0.00 0.15 0.15 75 1009.2
20260506212003 21 230 4.8 22.5 0.00 0.15 0.15 74 1009.7
20260506211655 22 253 3.2 11.3 0.00 0.15 0.15 74 1008.9
20260506211503 21 244 4.8 16.1 0.00 0.15 0.15 74 1009.8
20260506211152 21 261 1.6 16.1 0.00 0.15 0.15 74 1008.8
20260506211003 21 245 4.8 16.1 0.00 0.15 0.15 75 1009.7
20260506210649 21 264 9.7 14.5 0.00 0.15 0.15 75 1008.9
20260506210503 21 245 4.8 16.1 0.00 0.15 0.15 74 1009.8
20260506210146 21 273 6.4 14.5 0.00 0.15 0.15 75 1008.8
20260506210003 21 245 6.4 17.7 0.00 0.15 0.15 75 1009.7
20260506205644 21 258 1.6 12.9 0.00 0.15 0.15 76 1008.6
20260506205503 21 245 6.4 17.7 0.00 0.15 0.15 75 1009.7
20260506205144 20 286 8.0 17.7 0.00 0.15 0.15 76 1008.8
20260506205003 21 249 4.8 14.5 0.00 0.15 0.15 76 1009.4
20260506204642 20 246 1.6 8.0 0.00 0.15 0.15 77 1008.6
20260506204503 20 242 4.8 16.1 0.00 0.15 0.15 77 1009.7
20260506204138 20 250 3.2 11.3 0.00 0.15 0.15 78 1008.8
20260506204003 20 244 4.8 16.1 0.00 0.15 0.15 78 1009.9
20260506203637 20 253 1.6 9.7 0.00 0.15 0.15 78 1008.6
20260506203503 20 244 3.2 16.1 0.00 0.15 0.15 78 1009.7
20260506203133 20 255 0.0 16.1 0.00 0.15 0.15 78 1008.8
20260506203003 20 240 4.8 20.9 0.00 0.15 0.15 78 1009.5
20260506202631 20 236 4.8 9.7 0.00 0.15 0.15 78 1008.5
20260506202503 20 242 4.8 20.9 0.00 0.15 0.15 78 1009.7
20260506202127 20 266 6.4 20.9 0.00 0.15 0.15 77 1008.5
20260506202003 20 244 6.4 25.7 0.00 0.15 0.15 77 1009.7
20260506201624 20 237 3.2 12.9 0.00 0.15 0.15 77 1008.5
20260506201503 20 247 6.4 25.7 0.00 0.15 0.15 77 1009.5
20260506201121 20 230 4.8 8.0 0.00 0.15 0.15 78 1008.6
20260506201003 20 247 6.4 16.1 0.00 0.15 0.15 78 1009.5
20260506200617 20 238 1.6 16.1 0.00 0.15 0.15 78 1008.6
20260506200503 20 244 6.4 17.7 0.00 0.15 0.15 78 1009.5
20260506200114 20 266 6.4 17.7 0.00 0.15 0.15 79 1008.6
20260506200003 19 243 4.8 17.7 0.00 0.15 0.15 79 1009.5
20260506195611 19 224 1.6 17.7 0.00 0.15 0.15 80 1008.9
20260506195503 19 246 4.8 17.7 0.00 0.15 0.15 80 1009.7
20260506195107 19 233 4.8 8.0 0.00 0.15 0.15 80 1008.9
20260506195003 19 246 3.2 12.9 0.00 0.15 0.15 81 1009.8
20260506194605 18 251 3.2 4.8 0.00 0.15 0.15 81 1009.2
20260506194503 18 250 4.8 17.7 0.00 0.15 0.15 81 1009.7
20260506194101 18 241 4.8 8.0 0.00 0.15 0.15 81 1009.1
20260506194003 18 250 4.8 17.7 0.00 0.15 0.15 81 1010.0
20260506193559 18 260 4.8 4.8 0.00 0.15 0.15 81 1009.0
20260506193503 18 246 4.8 12.9 0.00 0.15 0.15 81 1010.1
20260506193056 18 236 9.7 12.9 0.00 0.15 0.15 81 1009.0
20260506193003 18 246 4.8 20.9 0.00 0.15 0.15 81 1009.8
20260506192552 18 236 3.2 20.9 0.00 0.15 0.15 81 1009.3
20260506192503 18 241 6.4 20.9 0.00 0.15 0.15 81 1010.1
20260506192048 18 237 3.2 12.9 0.00 0.15 0.15 81 1009.4
20260506192024 18 238 4.8 14.5 0.00 0.15 0.15 81 1010.1
20260506191545 18 224 4.8 9.7 0.00 0.15 0.15 81 1009.4
20260506191503 18 241 4.8 17.7 0.00 0.15 0.15 81 1010.2
20260506191041 18 237 4.8 11.3 0.00 0.15 0.15 81 1009.3
20260506191003 18 246 4.8 17.7 0.00 0.15 0.15 81 1010.3
20260506190539 18 249 11.3 12.9 0.00 0.15 0.15 81 1009.5
20260506190524 18 249 4.8 17.7 0.00 0.15 0.15 81 1010.3
20260506190036 18 244 3.2 11.3 0.00 0.15 0.15 81 1009.3
20260506190003 18 248 4.8 16.1 0.00 0.15 0.15 82 1010.2
20260506185533 18 239 8.0 12.9 0.00 0.15 0.15 81 1009.1
20260506185524 18 241 4.8 16.1 0.00 0.15 0.15 81 1010.3
20260506185029 18 208 3.2 9.7 0.00 0.15 0.15 82 1009.1
20260506185003 18 242 6.4 24.1 0.00 0.15 0.15 81 1010.0
20260506184527 18 225 11.3 16.1 0.00 0.15 0.15 81 1009.4
20260506184503 18 239 6.4 24.1 0.00 0.15 0.15 82 1010.3
20260506184024 18 241 8.0 12.9 0.00 0.15 0.15 82 1009.4
20260506184003 18 236 4.8 22.5 0.00 0.15 0.15 82 1010.2
20260506183519 18 249 3.2 8.0 0.00 0.15 0.15 83 1009.6
20260506183503 18 241 4.8 12.9 0.00 0.15 0.15 83 1010.3
20260506183016 18 236 0.0 8.0 0.00 0.15 0.15 83 1009.3
20260506183003 18 243 3.2 12.9 0.00 0.15 0.15 83 1010.6
20260506182514 18 240 1.6 12.9 0.00 0.15 0.15 83 1009.4
20260506182502 18 247 3.2 17.7 0.00 0.15 0.15 83 1010.7
20260506182011 18 248 3.2 8.0 0.00 0.15 0.15 84 1009.7
20260506182002 18 247 3.2 17.7 0.00 0.15 0.15 84 1010.4
20260506181509 18 307 3.2 12.9 0.00 0.15 0.15 84 1009.7
20260506181502 18 253 3.2 12.9 0.00 0.15 0.15 84 1010.7
20260506181005 17 257 4.8 8.0 0.00 0.15 0.15 84 1009.7
20260506181003 17 254 3.2 12.9 0.00 0.15 0.15 84 1010.8
20260506180503 17 243 3.2 12.9 0.00 0.15 0.15 85 1010.5
20260506180003 17 243 3.2 9.7 0.00 0.15 0.15 86 1010.7
20260506175958 17 250 0.0 3.2 0.00 0.15 0.15 86 1009.9
20260506175503 17 238 3.2 9.7 0.00 0.15 0.15 86 1010.9
20260506175455 17 17 3.2 9.7 0.00 0.15 0.15 86 1009.8
20260506175003 17 244 3.2 9.7 0.00 0.15 0.15 86 1010.8
20260506174951 17 241 1.6 4.8 0.00 0.15 0.15 86 1009.7
20260506174503 17 237 3.2 14.5 0.00 0.15 0.15 87 1010.7
20260506174450 17 254 4.8 8.0 0.00 0.15 0.15 87 1009.9
20260506174024 17 228 3.2 14.5 0.00 0.15 0.15 87 1010.9
20260506173946 17 235 1.6 9.7 0.00 0.15 0.15 87 1009.9
20260506173503 17 238 4.8 22.5 0.00 0.15 0.15 86 1010.9
20260506173444 17 234 1.6 3.2 0.00 0.15 0.15 86 1010.0
20260506173024 17 237 4.8 22.5 0.00 0.15 0.15 86 1010.8
20260506172940 17 253 4.8 11.3 0.00 0.15 0.15 86 1009.9
20260506172503 17 234 3.2 6.4 0.00 0.15 0.15 86 1011.0
20260506172437 17 226 4.8 8.0 0.00 0.15 0.15 86 1010.3
20260506172003 17 224 3.2 11.3 0.00 0.15 0.15 87 1010.8
20260506171934 17 251 1.6 8.0 0.00 0.15 0.15 86 1010.0
20260506171503 17 216 3.2 11.3 0.03 0.15 0.15 86 1010.7
20260506171431 17 131 8.0 11.3 0.00 0.15 0.15 87 1010.0
20260506171003 17 226 3.2 9.7 0.03 0.15 0.15 87 1011.1
20260506170929 17 192 8.0 9.7 0.00 0.15 0.15 87 1010.0
20260506170524 17 232 1.6 11.3 0.05 0.15 0.15 87 1010.9
20260506170425 17 311 3.2 4.8 0.00 0.15 0.15 87 1010.3
20260506170003 17 238 3.2 11.3 0.05 0.15 0.15 87 1011.1
20260506165924 17 244 1.6 11.3 0.00 0.15 0.15 87 1010.2
20260506165524 17 241 3.2 9.7 0.05 0.15 0.15 87 1011.0
20260506165422 17 247 1.6 3.2 0.00 0.15 0.15 87 1010.2
20260506165003 17 236 3.2 11.3 0.05 0.15 0.15 87 1011.2
20260506164918 17 251 1.6 9.7 0.00 0.15 0.15 87 1010.2
20260506164524 17 247 3.2 14.5 0.08 0.15 0.15 87 1011.0
20260506164415 17 215 3.2 4.8 0.00 0.15 0.15 87 1010.5
20260506164003 17 233 3.2 14.5 0.08 0.15 0.15 87 1011.0
20260506163913 17 237 0.0 14.5 0.00 0.15 0.15 87 1010.2
20260506163524 17 217 3.2 12.9 0.10 0.15 0.15 87 1011.2
20260506163407 17 286 3.2 4.8 0.00 0.15 0.15 87 1010.0
20260506163003 17 213 3.2 14.5 0.10 0.15 0.15 87 1011.2
20260506162902 17 248 1.6 9.7 0.00 0.15 0.15 87 1010.4
20260506162503 17 206 3.2 14.5 0.13 0.15 0.15 87 1011.5
20260506162400 17 239 3.2 14.5 0.18 0.15 0.15 86 1010.6
20260506162003 17 211 3.2 9.7 0.13 0.15 0.15 87 1011.3
20260506161858 17 211 1.6 3.2 0.18 0.15 0.15 87 1010.4
20260506161503 17 224 3.2 9.7 0.10 0.13 0.13 87 1011.4
20260506161355 17 213 1.6 3.2 0.18 0.13 0.13 87 1010.6
20260506161003 17 238 3.2 9.7 0.13 0.13 0.13 86 1011.4
20260506160853 17 265 1.6 8.0 0.18 0.13 0.13 87 1010.7
20260506160503 17 237 3.2 9.7 0.10 0.10 0.10 87 1011.5
20260506160349 17 196 1.6 3.2 0.00 0.10 0.10 86 1010.8
20260506160024 17 231 1.6 6.4 0.10 0.10 0.10 86 1011.7
20260506155848 17 261 1.6 4.8 0.00 0.10 0.10 86 1011.3
20260506155524 17 235 1.6 11.3 0.10 0.10 0.10 86 1012.0
20260506155345 17 263 1.6 8.0 0.13 0.10 0.10 86 1011.2
20260506155003 17 244 3.2 11.3 0.10 0.10 0.10 85 1012.3
20260506154503 17 245 4.8 16.1 0.08 0.08 0.08 84 1012.3
20260506154003 17 247 4.8 16.1 0.08 0.08 0.08 83 1012.2
20260506153503 17 249 3.2 11.3 0.05 0.05 0.05 83 1012.0
20260506153003 17 251 3.2 9.7 0.05 0.05 0.05 82 1012.1
20260506152959 17 259 3.2 9.7 0.13 0.05 0.05 82 1011.4
20260506152503 18 246 3.2 12.9 0.03 0.03 0.03 82 1012.2
20260506152456 18 268 4.8 9.7 0.00 0.03 0.03 82 1011.2
20260506152003 18 243 3.2 16.1 0.03 0.03 0.03 81 1012.4
20260506151954 18 251 3.2 12.9 0.18 0.03 0.03 81 1011.2
20260506151503 18 248 3.2 16.1 0.03 0.03 0.03 80 1012.0
20260506151451 18 230 3.2 12.9 0.18 0.03 0.03 80 1011.0
20260506151003 18 249 3.2 14.5 0.00 0.00 0.00 79 1012.1
20260506150949 18 258 3.2 8.0 0.00 0.00 0.00 79 1011.2
20260506150503 18 248 4.8 17.7 0.00 0.00 0.00 78 1012.0
20260506150444 18 249 3.2 9.7 0.00 0.00 0.00 78 1011.2
20260506150003 18 243 4.8 17.7 0.00 0.00 0.00 77 1012.2
20260506145942 18 240 3.2 9.7 0.00 0.00 0.00 77 1011.0
20260506145503 19 247 4.8 14.5 0.00 0.00 0.00 75 1012.0
20260506145438 19 236 4.8 14.5 0.00 0.00 0.00 74 1011.2
20260506145003 20 249 4.8 16.1 0.00 0.00 0.00 73 1012.1
20260506144936 20 259 3.2 9.7 0.00 0.00 0.00 72 1011.1
20260506144503 20 248 6.4 20.9 0.00 0.00 0.00 71 1011.7
20260506144432 20 218 4.8 16.1 0.00 0.00 0.00 71 1011.2
20260506144003 20 254 6.4 20.9 0.00 0.00 0.00 71 1012.1
20260506143931 20 243 4.8 11.3 0.00 0.00 0.00 71 1011.4
20260506143503 20 255 6.4 20.9 0.00 0.00 0.00 72 1012.1
20260506143427 20 245 1.6 12.9 0.00 0.00 0.00 71 1011.0
20260506143003 20 252 6.4 20.9 0.00 0.00 0.00 71 1012.0
20260506142925 20 264 8.0 12.9 0.00 0.00 0.00 71 1011.2
20260506142503 20 245 4.8 20.9 0.00 0.00 0.00 71 1012.0
20260506142423 20 265 3.2 11.3 0.00 0.00 0.00 71 1011.4
20260506142024 20 245 4.8 14.5 0.00 0.00 0.00 70 1012.3
20260506141921 20 289 6.4 11.3 0.00 0.00 0.00 70 1011.1
20260506141503 20 247 4.8 14.5 0.00 0.00 0.00 70 1012.2
20260506141419 20 231 4.8 11.3 0.00 0.00 0.00 70 1011.2
20260506141002 20 248 4.8 14.5 0.00 0.00 0.00 70 1012.0
20260506140917 20 246 8.0 12.9 0.00 0.00 0.00 70 1011.3
20260506140524 20 245 4.8 17.7 0.00 0.00 0.00 69 1012.1
20260506140413 20 250 0.0 8.0 0.00 0.00 0.00 70 1011.3
20260506140003 20 242 6.4 17.7 0.00 0.00 0.00 69 1012.0
20260506135911 20 274 11.3 17.7 0.00 0.00 0.00 69 1011.1
20260506135503 21 244 4.8 22.5 0.00 0.00 0.00 68 1012.1
20260506135408 21 179 4.8 12.9 0.00 0.00 0.00 68 1011.3
20260506135024 21 243 4.8 22.5 0.00 0.00 0.00 66 1012.1
20260506134904 22 280 11.3 22.5 0.00 0.00 0.00 66 1011.0
20260506134503 21 226 3.2 14.5 0.00 0.00 0.00 65 1011.9
20260506134400 21 232 3.2 9.7 0.00 0.00 0.00 67 1011.3
20260506134024 21 231 4.8 14.5 0.00 0.00 0.00 68 1011.9
20260506133857 21 224 4.8 4.8 0.00 0.00 0.00 68 1010.9
20260506133503 20 228 4.8 14.5 0.00 0.00 0.00 70 1011.8
20260506133353 20 219 4.8 14.5 0.00 0.00 0.00 69 1011.2
20260506133003 20 227 3.2 11.3 0.00 0.00 0.00 70 1011.7
20260506132850 20 260 4.8 11.3 0.00 0.00 0.00 70 1011.2
20260506132503 19 237 3.2 11.3 0.00 0.00 0.00 71 1012.1
20260506132347 19 249 3.2 4.8 0.00 0.00 0.00 72 1011.4
20260506132003 19 238 3.2 12.9 0.00 0.00 0.00 72 1012.1
20260506131846 19 206 3.2 4.8 0.00 0.00 0.00 72 1011.1
20260506131503 19 239 4.8 12.9 0.00 0.00 0.00 72 1012.0
20260506131341 19 270 3.2 9.7 0.00 0.00 0.00 72 1011.3
20260506131003 19 221 4.8 12.9 0.00 0.00 0.00 72 1012.0
20260506130839 19 186 4.8 8.0 0.00 0.00 0.00 72 1011.3
20260506130503 19 226 4.8 22.5 0.00 0.00 0.00 72 1012.2
20260506130335 19 308 4.8 11.3 0.00 0.00 0.00 72 1011.1
20260506130004 19 243 6.4 22.5 0.00 0.00 0.00 72 1012.2
20260506125833 19 235 9.7 22.5 0.00 0.00 0.00 72 1011.4
20260506125503 19 247 4.8 17.7 0.00 0.00 0.00 73 1012.1
20260506125331 19 242 6.4 12.9 0.00 0.00 0.00 73 1011.8
20260506125003 19 228 3.2 12.9 0.00 0.00 0.00 74 1012.3
20260506124829 19 249 3.2 3.2 0.00 0.00 0.00 73 1011.6
20260506124503 19 217 4.8 12.9 0.00 0.00 0.00 73 1012.5
20260506124326 19 259 1.6 12.9 0.00 0.00 0.00 73 1011.2
20260506124003 19 225 3.2 11.3 0.00 0.00 0.00 73 1012.3
20260506123824 19 226 1.6 8.0 0.00 0.00 0.00 73 1011.7
20260506123503 19 235 3.2 11.3 0.00 0.00 0.00 74 1012.2
20260506123322 19 210 4.8 11.3 0.00 0.00 0.00 74 1011.4
20260506123003 19 215 3.2 11.3 0.00 0.00 0.00 74 1012.6
20260506122819 19 247 1.6 8.0 0.00 0.00 0.00 74 1011.2
20260506122503 19 199 3.2 12.9 0.00 0.00 0.00 75 1011.9
20260506122316 19 136 4.8 9.7 0.00 0.00 0.00 74 1011.5
20260506122002 19 207 3.2 12.9 0.00 0.00 0.00 75 1011.9
20260506121814 18 243 3.2 8.0 0.00 0.00 0.00 75 1011.6
20260506121503 18 212 1.6 9.7 0.00 0.00 0.00 76 1012.5
20260506121311 18 204 4.8 8.0 0.00 0.00 0.00 75 1011.5
20260506121002 19 207 3.2 9.7 0.00 0.00 0.00 75 1012.1
20260506120808 19 244 3.2 8.0 0.00 0.00 0.00 75 1011.4
20260506120503 19 208 3.2 9.7 0.00 0.00 0.00 75 1012.1
20260506120305 19 178 4.8 9.7 0.00 0.00 0.00 75 1011.3
20260506120003 19 213 3.2 9.7 0.00 0.00 0.00 75 1012.0
20260506115803 19 182 3.2 8.0 0.00 0.00 0.00 75 1011.2
20260506115524 19 220 1.6 16.1 0.00 0.00 0.00 75 1012.0
20260506115301 19 51 1.6 4.8 0.00 0.00 0.00 76 1011.1
20260506115003 18 215 1.6 16.1 0.00 0.00 0.00 76 1012.0
20260506114758 18 148 4.8 8.0 0.00 0.00 0.00 77 1011.3
20260506114503 18 221 1.6 12.9 0.00 0.00 0.00 77 1012.1
20260506114256 18 186 1.6 12.9 0.00 0.00 0.00 78 1011.5
20260506114003 18 212 1.6 6.4 0.00 0.00 0.00 78 1012.0
20260506113754 18 240 0.0 1.6 0.00 0.00 0.00 78 1011.1
20260506113503 18 207 1.6 6.4 0.00 0.00 0.00 78 1011.8
20260506113252 18 249 1.6 8.0 0.00 0.00 0.00 78 1011.2
20260506113003 18 214 1.6 9.7 0.00 0.00 0.00 78 1012.0
20260506112748 18 246 1.6 4.8 0.00 0.00 0.00 78 1011.1
20260506112503 18 214 1.6 9.7 0.00 0.00 0.00 78 1012.1
20260506112245 18 238 1.6 9.7 0.00 0.00 0.00 78 1011.3
20260506112003 18 218 1.6 6.4 0.00 0.00 0.00 79 1012.1
20260506111742 18 204 1.6 8.0 0.00 0.00 0.00 79 1011.4
20260506111503 18 216 1.6 9.7 0.00 0.00 0.00 79 1012.0
20260506111241 17 237 0.0 4.8 0.00 0.00 0.00 79 1011.1
20260506111003 17 208 3.2 9.7 0.00 0.00 0.00 79 1012.1
20260506110737 17 245 0.0 9.7 0.00 0.00 0.00 79 1011.3
20260506110503 17 211 1.6 6.4 0.00 0.00 0.00 79 1012.0
20260506110235 17 248 4.8 8.0 0.00 0.00 0.00 80 1011.4
20260506110003 17 210 1.6 11.3 0.00 0.00 0.00 80 1011.8
20260506105731 17 255 1.6 1.6 0.00 0.00 0.00 80 1011.2
20260506105503 17 218 1.6 11.3 0.00 0.00 0.00 80 1012.2
20260506105228 17 236 1.6 4.8 0.00 0.00 0.00 81 1011.2
20260506105003 17 218 1.6 6.4 0.00 0.00 0.00 81 1011.9
20260506104726 17 246 1.6 4.8 0.00 0.00 0.00 81 1011.2
20260506104503 17 207 1.6 6.4 0.00 0.00 0.00 81 1012.1
20260506104224 17 192 4.8 8.0 0.00 0.00 0.00 81 1011.4
20260506104003 17 216 1.6 4.8 0.00 0.00 0.00 81 1012.3
20260506103721 17 241 1.6 4.8 0.00 0.00 0.00 82 1011.3
20260506103503 17 226 1.6 4.8 0.00 0.00 0.00 82 1011.6
20260506103217 17 245 1.6 3.2 0.00 0.00 0.00 82 1011.2
20260506103003 17 221 1.6 6.4 0.00 0.00 0.00 82 1011.9
20260506102715 17 228 1.6 4.8 0.00 0.00 0.00 82 1011.2
20260506102503 17 227 1.6 6.4 0.00 0.00 0.00 82 1012.0
20260506102213 17 249 0.0 1.6 0.00 0.00 0.00 82 1011.1
20260506102003 17 223 1.6 4.8 0.00 0.00 0.00 82 1012.0
20260506101710 17 243 1.6 3.2 0.00 0.00 0.00 82 1011.3
20260506101503 17 219 1.6 4.8 0.00 0.00 0.00 82 1012.0
20260506101206 17 189 3.2 4.8 0.00 0.00 0.00 83 1011.2
20260506101003 17 221 1.6 4.8 0.00 0.00 0.00 83 1012.1
20260506100705 17 233 1.6 3.2 0.00 0.00 0.00 83 1011.2
20260506100503 17 221 1.6 4.8 0.00 0.00 0.00 83 1012.0
20260506100202 17 242 1.6 4.8 0.00 0.00 0.00 83 1011.0
20260506100004 17 220 1.6 4.8 0.00 0.00 0.00 83 1011.9
20260506095701 17 203 3.2 3.2 0.00 0.00 0.00 83 1011.2
20260506095524 17 223 1.6 4.8 0.00 0.00 0.00 83 1012.1
20260506095157 17 233 0.0 4.8 0.00 0.00 0.00 83 1011.0
20260506095024 16 224 1.6 4.8 0.00 0.00 0.00 83 1012.0
20260506094654 17 225 0.0 3.2 0.00 0.00 0.00 83 1011.2
20260506094503 17 224 1.6 4.8 0.00 0.00 0.00 83 1011.9
20260506094152 17 245 0.0 1.6 0.00 0.00 0.00 83 1011.4
20260506094003 17 241 0.0 3.2 0.00 0.00 0.00 83 1012.1
20260506093651 17 250 0.0 1.6 0.00 0.00 0.00 83 1011.3
20260506093503 17 232 0.0 3.2 0.00 0.00 0.00 82 1012.0
20260506093147 17 250 0.0 1.6 0.00 0.00 0.00 82 1011.3
20260506093003 17 229 0.0 3.2 0.00 0.00 0.00 82 1012.0
20260506092645 17 213 1.6 3.2 0.00 0.00 0.00 82 1011.3
20260506092503 17 231 0.0 3.2 0.00 0.00 0.00 82 1012.1
20260506092142 17 250 0.0 0.0 0.00 0.00 0.00 82 1011.2
20260506092003 17 236 0.0 3.2 0.00 0.00 0.00 82 1011.9
20260506091640 17 245 0.0 0.0 0.00 0.00 0.00 82 1011.1
20260506091503 17 234 1.6 4.8 0.00 0.00 0.00 82 1011.9
20260506091137 17 228 0.0 4.8 0.00 0.00 0.00 81 1011.2
20260506091003 17 229 1.6 4.8 0.00 0.00 0.00 82 1011.9
20260506090635 17 225 1.6 4.8 0.00 0.00 0.00 82 1011.3
20260506090503 17 221 0.0 4.8 0.00 0.00 0.00 82 1012.0
20260506090131 17 212 3.2 3.2 0.00 0.00 0.00 82 1011.2
20260506090003 17 213 0.0 4.8 0.00 0.00 0.00 81 1012.0
20260506085628 17 243 0.0 0.0 0.00 0.00 0.00 81 1011.2
20260506085503 17 212 0.0 4.8 0.00 0.00 0.00 81 1012.0
20260506085125 17 213 4.8 4.8 0.00 0.00 0.00 81 1011.2
20260506085024 17 228 0.0 3.2 0.00 0.00 0.00 81 1011.9
20260506084621 17 248 0.0 0.0 0.00 0.00 0.00 81 1011.1
20260506084503 17 227 0.0 3.2 0.00 0.00 0.00 80 1012.2
20260506084118 17 248 0.0 3.2 0.00 0.00 0.00 80 1011.2
20260506084003 17 224 1.6 4.8 0.00 0.00 0.00 80 1012.1
20260506083615 18 239 0.0 3.2 0.00 0.00 0.00 80 1011.3
20260506083503 18 219 1.6 4.8 0.00 0.00 0.00 80 1012.1
20260506083113 18 245 1.6 4.8 0.00 0.00 0.00 80 1011.0
20260506083024 18 219 1.6 4.8 0.00 0.00 0.00 80 1012.0
20260506082609 18 242 0.0 1.6 0.00 0.00 0.00 80 1011.2
20260506082503 18 231 1.6 3.2 0.00 0.00 0.00 79 1012.2
20260506082105 18 248 0.0 3.2 0.00 0.00 0.00 79 1011.4
20260506082003 18 225 1.6 4.8 0.00 0.00 0.00 79 1011.9
20260506081603 18 195 3.2 3.2 0.00 0.00 0.00 79 1011.3
20260506081503 18 226 1.6 4.8 0.00 0.00 0.00 79 1012.2
20260506081100 18 210 3.2 3.2 0.00 0.00 0.00 79 1011.5
20260506081003 18 232 1.6 4.8 0.00 0.00 0.00 79 1012.4
20260506080558 18 250 0.0 3.2 0.00 0.00 0.00 79 1011.4
20260506080524 18 226 1.6 4.8 0.00 0.00 0.00 79 1012.3
20260506073503 18 209 1.6 6.4 0.00 0.00 0.00 78 1012.2
20260506073038 18 213 0.0 1.6 0.00 0.00 0.00 77 1011.4
20260506073003 18 213 1.6 6.4 0.00 0.00 0.00 77 1012.3
20260506072535 18 221 1.6 4.8 0.00 0.00 0.00 77 1011.7
20260506072503 18 213 1.6 4.8 0.00 0.00 0.00 77 1012.1
20260506072033 18 218 0.0 0.0 0.00 0.00 0.00 77 1011.4
20260506072003 18 219 1.6 4.8 0.00 0.00 0.00 77 1012.0
20260506071531 18 243 3.2 3.2 0.00 0.00 0.00 77 1011.3
20260506071503 18 230 0.0 3.2 0.00 0.00 0.00 77 1012.1
20260506071028 18 243 0.0 1.6 0.00 0.00 0.00 77 1011.6
20260506071003 18 218 0.0 9.7 0.00 0.00 0.00 77 1012.3
20260506070525 18 248 0.0 4.8 0.00 0.00 0.00 77 1011.5
20260506070503 18 223 1.6 9.7 0.00 0.00 0.00 77 1012.2
20260506062503 18 234 0.0 3.2 0.00 0.00 0.00 77 1012.2
20260506062024 18 235 0.0 3.2 0.00 0.00 0.00 77 1012.4
20260506061959 18 207 0.0 0.0 0.00 0.00 0.00 77 1011.7
20260506061503 18 247 0.0 1.6 0.00 0.00 0.00 77 1012.5
20260506061455 18 250 0.0 1.6 0.00 0.00 0.00 77 1011.8
20260506061024 18 246 0.0 3.2 0.00 0.00 0.00 77 1012.3
20260506060953 18 251 0.0 0.0 0.00 0.00 0.00 77 1011.8
20260506060503 18 250 1.6 4.8 0.00 0.00 0.00 77 1012.4
20260506060451 18 250 1.6 3.2 0.00 0.00 0.00 77 1011.8
20260506051024 19 247 0.0 3.2 0.00 0.00 0.00 74 1012.7
20260506050920 19 256 0.0 0.0 0.00 0.00 0.00 74 1012.2
20260506050503 19 248 0.0 3.2 0.00 0.00 0.00 74 1012.9
20260506050417 19 255 1.6 1.6 0.00 0.00 0.00 74 1012.2
20260506045024 19 246 0.0 4.8 0.00 0.03 0.00 74 1012.8
20260506044908 19 255 0.0 4.8 0.00 0.00 0.00 74 1012.4
20260506044503 18 252 0.0 4.8 0.00 0.03 0.00 75 1013.1
20260506044406 18 245 0.0 0.0 0.00 0.00 0.00 75 1012.4
20260506044003 18 247 0.0 4.8 0.00 0.03 0.00 75 1012.8
20260506043903 18 255 1.6 1.6 0.00 0.00 0.00 75 1012.3
20260506043503 18 235 0.0 3.2 0.00 0.03 0.00 75 1013.0
20260506043359 18 235 1.6 3.2 0.00 0.00 0.00 75 1012.2
20260506043003 18 0 0.0 0.0 0.00 0.03 0.00 75 1012.8
20260506042858 18 248 0.0 0.0 0.00 0.00 0.00 75 1012.2
20260506042524 18 0 0.0 0.0 0.00 0.03 0.00 75 1013.1
20260506042357 18 240 0.0 0.0 0.00 0.00 0.00 75 1012.5
20260506042024 18 0 0.0 0.0 0.00 0.03 0.00 75 1013.1
20260506041855 18 254 0.0 0.0 0.00 0.00 0.00 74 1012.2
20260506041503 19 246 0.0 1.6 0.00 0.03 0.00 74 1012.9
20260506041354 19 249 0.0 0.0 0.00 0.00 0.00 74 1012.3
20260506041003 19 243 0.0 3.2 0.00 0.03 0.00 74 1013.2
20260506040849 19 242 0.0 1.6 0.00 0.00 0.00 73 1012.3
20260506040503 19 228 1.6 4.8 0.00 0.03 0.00 73 1013.1
20260506040346 19 249 0.0 1.6 0.00 0.00 0.00 73 1012.3
20260506040004 19 221 1.6 4.8 0.00 0.03 0.00 73 1013.0
20260506035842 19 251 0.0 3.2 0.00 0.03 0.03 73 1012.3
20260506035524 19 229 1.6 3.2 0.00 0.03 0.03 73 1012.8
20260506035340 19 207 1.6 3.2 0.00 0.03 0.03 73 1012.1
20260506035003 19 224 1.6 4.8 0.00 0.03 0.03 73 1013.0
20260506034837 19 253 1.6 1.6 0.00 0.03 0.03 73 1012.2
20260506034503 19 213 1.6 4.8 0.00 0.03 0.03 73 1013.0
20260506034334 19 193 3.2 4.8 0.00 0.03 0.03 73 1012.3
20260506034003 19 213 1.6 6.4 0.00 0.03 0.03 72 1012.9
20260506033831 19 223 3.2 4.8 0.00 0.03 0.03 72 1012.2
20260506033503 19 218 1.6 6.4 0.00 0.03 0.03 72 1012.9
20260506033328 19 176 1.6 8.0 0.00 0.03 0.03 72 1011.9
20260506033003 19 210 1.6 9.7 0.00 0.03 0.03 72 1012.5
20260506032825 20 228 0.0 1.6 0.00 0.03 0.03 72 1012.0
20260506032503 19 206 3.2 9.7 0.00 0.03 0.03 72 1012.5
20260506032322 20 235 0.0 4.8 0.00 0.03 0.03 72 1011.9
20260506032003 19 209 1.6 9.7 0.00 0.03 0.03 72 1012.7
20260506031819 20 210 4.8 8.0 0.00 0.03 0.03 72 1012.2
20260506031503 19 213 1.6 6.4 0.00 0.03 0.03 72 1012.6
20260506031316 19 234 0.0 8.0 0.00 0.03 0.03 72 1012.0
20260506031024 19 231 0.0 4.8 0.00 0.03 0.03 72 1012.9
20260506030813 19 241 1.6 4.8 0.00 0.03 0.03 72 1012.1
20260506030524 19 225 1.6 6.4 0.00 0.03 0.03 72 1012.6
20260506030311 20 241 0.0 1.6 0.00 0.03 0.03 72 1012.0
20260506030003 19 224 1.6 6.4 0.00 0.03 0.03 72 1013.0
20260506025808 20 218 0.0 3.2 0.00 0.03 0.03 72 1012.3
20260506025503 19 230 1.6 4.8 0.00 0.03 0.03 72 1013.0
20260506025305 20 240 0.0 3.2 0.00 0.03 0.03 71 1012.0
20260506025003 19 241 1.6 4.8 0.00 0.03 0.03 71 1013.0
20260506024801 20 246 0.0 3.2 0.00 0.03 0.03 71 1012.3
20260506024503 20 238 1.6 6.4 0.00 0.03 0.03 71 1013.0
20260506024258 20 250 1.6 3.2 0.00 0.03 0.03 71 1012.4
20260506024003 20 232 1.6 6.4 0.00 0.03 0.03 71 1013.0
20260506023754 20 231 1.6 3.2 0.00 0.03 0.03 71 1012.4
20260506023503 20 229 1.6 6.4 0.00 0.03 0.03 71 1013.0
20260506023251 20 202 0.0 3.2 0.00 0.03 0.03 70 1012.4
20260506023003 20 224 1.6 6.4 0.00 0.03 0.03 70 1013.1
20260506022748 20 245 0.0 3.2 0.00 0.03 0.03 69 1012.4
20260506022503 20 217 1.6 11.3 0.00 0.03 0.03 69 1012.9
20260506022246 20 209 3.2 3.2 0.00 0.03 0.03 69 1012.4
20260506022003 20 223 1.6 11.3 0.00 0.03 0.03 68 1012.8
20260506021744 20 273 4.8 11.3 0.00 0.03 0.03 68 1012.2
20260506021503 20 222 1.6 11.3 0.00 0.03 0.03 68 1012.8
20260506021240 20 235 1.6 3.2 0.00 0.03 0.03 67 1012.1
20260506021003 20 215 1.6 11.3 0.00 0.03 0.03 67 1012.8
20260506020737 20 182 4.8 11.3 0.00 0.03 0.03 67 1012.0
20260506020503 20 216 1.6 12.9 0.00 0.03 0.03 66 1012.7
20260506020235 21 219 0.0 1.6 0.00 0.03 0.03 66 1012.1
20260506020003 21 218 1.6 12.9 0.00 0.03 0.03 65 1012.7
20260506015732 21 174 3.2 9.7 0.00 0.03 0.03 65 1012.0
20260506015503 21 233 1.6 6.4 0.00 0.03 0.03 65 1012.8
20260506015230 21 253 0.0 3.2 0.00 0.03 0.03 64 1012.0
20260506015003 21 222 1.6 9.7 0.00 0.03 0.03 64 1012.7
20260506014726 21 243 1.6 3.2 0.00 0.03 0.03 63 1011.9
20260506014503 21 218 1.6 9.7 0.00 0.03 0.03 63 1012.7
20260506014222 21 241 0.0 3.2 0.00 0.03 0.03 62 1012.0
20260506014003 21 218 1.6 9.7 0.00 0.03 0.03 62 1012.6
20260506013720 21 223 1.6 4.8 0.00 0.03 0.03 61 1011.5
20260506013503 21 228 1.6 6.4 0.00 0.03 0.03 61 1012.4
20260506013217 21 242 0.0 3.2 0.00 0.03 0.03 60 1011.8
20260506013003 21 212 1.6 9.7 0.00 0.03 0.03 60 1012.4
20260506012713 22 247 1.6 1.6 0.00 0.03 0.03 59 1011.5
20260506012503 22 210 1.6 9.7 0.00 0.03 0.03 59 1012.4
20260506012211 22 182 0.0 3.2 0.00 0.03 0.03 59 1011.7
20260506012003 22 226 1.6 6.4 0.00 0.03 0.03 59 1012.3
20260506011708 22 243 0.0 4.8 0.00 0.03 0.03 58 1011.3
20260506011503 22 230 1.6 11.3 0.00 0.03 0.03 58 1012.2
20260506011204 22 230 0.0 3.2 0.00 0.03 0.03 57 1011.5
20260506011003 22 224 1.6 11.3 0.00 0.03 0.03 57 1012.3
20260506010702 22 229 1.6 3.2 0.00 0.03 0.03 56 1011.5
20260506010503 22 215 1.6 9.7 0.00 0.03 0.03 57 1012.0
20260506010159 22 247 1.6 1.6 0.00 0.03 0.03 56 1011.3
20260506010003 22 208 3.2 9.7 0.00 0.03 0.03 56 1012.0
20260506005656 22 183 6.4 9.7 0.00 0.03 0.03 55 1011.4
20260506005503 22 212 3.2 9.7 0.00 0.03 0.03 55 1012.4
20260506005153 22 197 6.4 9.7 0.00 0.03 0.03 55 1011.2
20260506005003 22 222 1.6 6.4 0.00 0.03 0.03 54 1012.1
20260506004649 23 251 1.6 4.8 0.00 0.03 0.03 54 1011.3
20260506004503 23 217 1.6 14.5 0.00 0.03 0.03 54 1011.9
20260506004147 23 181 4.8 9.7 0.00 0.03 0.03 53 1011.2
20260506003643 23 246 3.2 14.5 0.00 0.03 0.03 53 1011.1
20260506003503 23 214 3.2 12.9 0.00 0.03 0.03 53 1012.0
20260506003139 23 191 6.4 11.3 0.00 0.03 0.03 53 1011.1
20260506003003 23 243 1.6 12.9 0.00 0.03 0.03 53 1011.9
20260506002635 23 241 0.0 3.2 0.00 0.03 0.03 53 1011.0
20260506002503 23 231 1.6 6.4 0.00 0.03 0.03 53 1011.9
20260506002131 23 240 0.0 4.8 0.00 0.03 0.03 53 1011.1
20260506002003 23 212 3.2 11.3 0.00 0.03 0.03 52 1011.6
20260506001627 23 251 4.8 4.8 0.00 0.03 0.03 52 1010.8
20260506001503 23 207 3.2 11.3 0.00 0.03 0.03 52 1011.5
20260506001125 23 228 4.8 11.3 0.00 0.03 0.03 52 1010.8
20260506001003 23 217 3.2 9.7 0.00 0.03 0.03 52 1011.8
20260506000622 23 214 1.6 9.7 0.00 0.03 0.03 52 1010.9
20260506000503 23 218 1.6 9.7 0.00 0.03 0.03 51 1011.5
20260506000119 23 218 1.6 8.0 0.00 0.03 0.03 51 1010.8
20260506000003 23 213 3.2 11.3 0.00 0.03 0.03 51 1011.2
20260505235617 23 236 0.0 9.7 0.00 0.03 0.03 51 1010.9
20260505235524 23 208 3.2 11.3 0.00 0.03 0.03 51 1011.5
20260505235114 23 256 3.2 8.0 0.00 0.03 0.03 50 1010.9
20260505235003 23 209 3.2 9.7 0.00 0.03 0.03 50 1011.5
20260505234611 23 238 1.6 3.2 0.00 0.03 0.03 50 1010.7
20260505234503 23 217 1.6 9.7 0.00 0.03 0.03 50 1011.5
20260505234107 23 199 8.0 9.7 0.00 0.03 0.03 50 1010.6
20260505234003 23 234 3.2 14.5 0.00 0.03 0.03 50 1011.5
20260505233605 24 144 4.8 9.7 0.00 0.03 0.03 50 1010.7
20260505233503 24 222 3.2 14.5 0.00 0.03 0.03 50 1011.5
20260505233102 24 246 1.6 12.9 0.00 0.03 0.03 50 1010.8
20260505233024 24 215 3.2 12.9 0.00 0.03 0.03 50 1011.5
20260505232600 24 239 0.0 8.0 0.00 0.03 0.03 50 1010.6
20260505232503 24 218 3.2 9.7 0.00 0.03 0.03 50 1011.4
20260505232057 24 252 3.2 8.0 0.00 0.03 0.03 50 1010.6
20260505232003 24 212 3.2 11.3 0.00 0.03 0.03 50 1011.3